[Date Prev][Date Next][Thread Prev][Thread Next] - [Date Index][Thread Index][Author Index]

2 Line ISS Keps 8-11



ISS
1 25544U 98067A   04224.16493056  .00014627  00000-0  12007-3 0  4208
2 25544  51.6333  45.1261 0005859 103.6543  49.6888 15.70714954326952
----
Via the sarex mailing list at AMSAT.ORG courtesy of AMSAT-NA.
To unsubscribe, send "unsubscribe sarex" to Majordomo@amsat.org



AMSAT Top AMSAT Home